Back to catalog

CZ-6A DEB

AliveSSO
NORAD 54606·DEBRIS·🇨🇳 China

Launched Nov 11, 2022 from Taiyuan Satellite Launch Center

Loading…

Next Passes (next 24 hours)

TLE

FreshSource: Space-Track

Epoch: Sep 14, 2026, 12:37 UTC

1 54606U 22151NG  26257.52588652  .00004364  00000-0  14894-2 0  9990
2 54606  98.7910 285.0335 0058330  52.8502 307.7991 14.35948839198765

Track CZ-6A DEB in real time with AllMySat

Download on the App Store